Weather History for Fredericksburg, VA

Change the Weather History Date:

Tuesday, March 19, 2013

  Actual Average (KNYG) Record (KNYG)
Temperature  
Mean Temperature 48 °F -  
Max Temperature 64 °F 52 °F 78 °F (2012)
Min Temperature 33 °F 34 °F 24 °F (2007)
Degree Days  
Heating Degree Days 16    
Moisture  
Dew Point 28 °F    
Average Humidity 62    
Maximum Humidity 100    
Minimum Humidity 15    
Precipitation  
Precipitation 0.03 in - - ()
Sea Level Pressure  
Sea Level Pressure 29.82 in    
Wind  
Wind Speed 6 mph (West)    
Max Wind Speed 25 mph    
Max Gust Speed 36 mph    
Visibility 9 miles    
Events      
Averages and records for this station are not official NWS values.
T = Trace of Precipitation, MM = Missing Value Source: NWS Daily Summary

Daily Weather History Graph

Daily Weather History Graph

Search for Another Location

Airport:

Trip Planner

Search our weather history database for the weather conditions in past years. The results will help you decide how hot, cold, wet, or windy it might be!

Date:

Astronomy

Mar. 19, 2013 Rise Set
Actual Time 7:14 AM EDT 7:20 PM EDT
Civil Twilight 6:48 AM EDT 7:47 PM EDT
Nautical Twilight 6:17 AM EDT 8:18 PM EDT
Astronomical Twilight 5:46 AM EDT 8:49 PM EDT
Moon 12:07 PM EDT (3/19) 2:01 AM EDT (3/19)
Length of Visible Light 12h 59m
Length of Day
12h 06m
Waxing Crescent, 49% of the Moon is Illuminated
Mar 19
Waxing Crescent
Mar 19
First Quarter
Mar 27
Full
Apr 3
Last Quarter
Apr 10
New

Hourly Weather History & Observations

Time (EDT) Temp. Windchill Dew Point Humidity Pressure Visibility Wind Dir Wind Speed Gust Speed Precip Events Conditions
12:15 AM 35.8 °F 30.1 °F 35.8 °F 100% 29.91 in 10.0 mi WNW 6.9 mph - N/A   Overcast
12:35 AM 36.0 °F - 35.6 °F 99% 29.89 in 10.0 mi Calm Calm - N/A   Overcast
12:55 AM 36.1 °F - 35.6 °F 98% 29.88 in 10.0 mi Calm Calm - N/A   Overcast
1:15 AM 36.0 °F - 35.8 °F 99% 29.88 in 10.0 mi Calm Calm - N/A   Overcast
1:35 AM 36.1 °F - 36.0 °F 99% 29.86 in 10.0 mi Calm Calm - N/A   Overcast
1:55 AM 36.1 °F - 36.1 °F 100% 29.84 in 10.0 mi Calm Calm - N/A   Overcast
2:15 AM 36.0 °F - 36.0 °F 100% 29.84 in 10.0 mi Calm Calm - N/A   Overcast
2:35 AM 35.6 °F - 35.6 °F 100% 29.84 in 10.0 mi Calm Calm - N/A   Mostly Cloudy
3:35 AM 34.3 °F - 34.3 °F 100% 29.81 in 2.5 mi Calm Calm - N/A   Clear
3:55 AM 34.3 °F - 34.3 °F 100% 29.79 in 7.0 mi Calm Calm - N/A   Clear
4:15 AM 33.8 °F 30.8 °F 33.8 °F 100% 29.79 in 7.0 mi West 3.5 mph - N/A   Clear
4:35 AM 33.4 °F 30.4 °F 33.4 °F 100% 29.79 in 10.0 mi WSW 3.5 mph - N/A   Clear
4:55 AM 33.6 °F 30.6 °F 33.6 °F 100% 29.78 in 7.0 mi WSW 3.5 mph - N/A   Scattered Clouds
5:15 AM 33.1 °F 28.7 °F 33.1 °F 100% 29.78 in 4.0 mi SW 4.6 mph - N/A   Overcast
5:35 AM 33.4 °F - 33.4 °F 100% 29.78 in 3.0 mi Calm Calm - N/A   Overcast
5:55 AM 33.8 °F - 33.8 °F 100% 29.79 in 0.8 mi Calm Calm - N/A   Overcast
6:15 AM 33.8 °F - 33.8 °F 100% 29.78 in 0.8 mi Calm Calm - N/A   Overcast
6:35 AM 34.0 °F 29.8 °F 34.0 °F 100% 29.80 in 2.5 mi West 4.6 mph - N/A   Overcast
6:55 AM 33.8 °F 27.7 °F 33.8 °F 100% 29.80 in 3.0 mi WNW 6.9 mph - N/A   Overcast
7:15 AM 33.8 °F 29.6 °F 33.8 °F 100% 29.80 in 7.0 mi WNW 4.6 mph - N/A   Overcast
7:35 AM 33.8 °F 29.6 °F 33.8 °F 100% 29.81 in 10.0 mi WNW 4.6 mph - N/A   Overcast
7:55 AM 34.0 °F 28.8 °F 34.0 °F 100% 29.83 in 10.0 mi NW 5.8 mph - N/A   Overcast
8:15 AM 34.5 °F 28.6 °F 34.5 °F 100% 29.85 in 5.0 mi NW 6.9 mph - N/A   Overcast
8:35 AM 34.9 °F 30.8 °F 34.9 °F 100% 29.85 in 4.0 mi NNW 4.6 mph - N/A   Overcast
8:55 AM 35.6 °F - 35.6 °F 100% 29.84 in 10.0 mi Calm Calm - N/A   Overcast
9:15 AM 36.5 °F - 36.5 °F 100% 29.83 in 10.0 mi Calm Calm - N/A   Overcast
9:35 AM 37.4 °F - 36.7 °F 97% 29.84 in 10.0 mi Calm Calm - N/A   Overcast
9:55 AM 38.5 °F - 36.9 °F 94% 29.83 in 10.0 mi Calm Calm - N/A   Overcast
10:15 AM 38.8 °F - 36.9 °F 93% 29.83 in 10.0 mi Calm Calm - N/A   Overcast
10:35 AM 40.1 °F - 37.6 °F 91% 29.85 in 10.0 mi Calm Calm - N/A   Overcast
10:55 AM 41.5 °F 39.6 °F 38.8 °F 90% 29.84 in 10.0 mi SW 3.5 mph - N/A   Overcast
11:15 AM 42.6 °F 39.9 °F 39.0 °F 87% 29.83 in 10.0 mi SW 4.6 mph - N/A   Overcast
11:35 AM 43.5 °F - 39.6 °F 86% 29.83 in 10.0 mi Calm Calm - N/A   Overcast
11:55 AM 45.9 °F - 41.0 °F 83% 29.82 in 10.0 mi Calm Calm - N/A   Overcast
12:15 PM 45.3 °F 43.0 °F 39.2 °F 79% 29.81 in 10.0 mi SE 4.6 mph - N/A   Mostly Cloudy
12:35 PM 47.5 °F - 40.3 °F 76% 29.81 in 10.0 mi South 4.6 mph - N/A   Scattered Clouds
12:55 PM 49.1 °F - 41.0 °F 74% 29.81 in 10.0 mi SW 5.8 mph - N/A   Clear
1:15 PM 50.4 °F - 40.8 °F 70% 29.81 in 10.0 mi SSW 3.5 mph - N/A   Clear
1:35 PM 53.2 °F - 41.5 °F 65% 29.79 in 10.0 mi WSW 4.6 mph - N/A   Clear
1:55 PM 55.2 °F - 40.3 °F 57% 29.77 in 10.0 mi WSW 4.6 mph - N/A   Clear
2:15 PM 57.4 °F - 37.4 °F 47% 29.76 in 10.0 mi West 12.7 mph 18.4 mph N/A   Clear
2:35 PM 58.8 °F - 34.9 °F 41% 29.74 in 10.0 mi West 16.1 mph 20.7 mph N/A   Clear
2:55 PM 60.4 °F - 36.3 °F 41% 29.73 in 10.0 mi WSW 8.1 mph - N/A   Clear
3:15 PM 62.8 °F - 32.4 °F 32% 29.71 in 10.0 mi SW 13.8 mph 18.4 mph N/A   Clear
3:35 PM 63.7 °F - 28.2 °F 26% 29.73 in 10.0 mi West 10.4 mph 24.2 mph N/A   Clear
3:55 PM 63.9 °F - 29.3 °F 27% 29.73 in 10.0 mi West 12.7 mph 23.0 mph N/A   Clear
4:15 PM 64.4 °F - 25.9 °F 23% 29.72 in 10.0 mi West 13.8 mph 32.2 mph N/A   Clear
4:35 PM 64.0 °F - 20.8 °F 19% 29.73 in 10.0 mi West 20.7 mph 34.5 mph N/A   Clear
4:55 PM 63.1 °F - 21.0 °F 20% 29.74 in 10.0 mi West 21.9 mph 32.2 mph N/A   Unknown
5:15 PM 62.6 °F - 22.6 °F 22% 29.75 in 10.0 mi WSW 18.4 mph 29.9 mph N/A   Unknown
5:35 PM 62.1 °F - 22.3 °F 22% 29.75 in 10.0 mi West 21.9 mph 28.8 mph N/A   Unknown
5:55 PM 61.2 °F - 16.2 °F 17% 29.76 in 10.0 mi WNW 25.3 mph 33.4 mph N/A   Clear
6:15 PM 60.1 °F - 13.5 °F 16% 29.78 in 10.0 mi WNW 24.2 mph 35.7 mph N/A   Unknown
6:35 PM 59.0 °F - 12.6 °F 16% 29.79 in 10.0 mi West 20.7 mph 34.5 mph N/A   Unknown
6:55 PM 57.7 °F - 12.4 °F 17% 29.81 in 10.0 mi WNW 16.1 mph 27.6 mph N/A   Unknown
7:15 PM 57.4 °F - 12.4 °F 17% 29.82 in 10.0 mi WNW 13.8 mph 27.6 mph N/A   Unknown
7:35 PM 56.7 °F - 10.9 °F 16% 29.83 in 10.0 mi WNW 17.3 mph 29.9 mph N/A   Unknown
7:55 PM 55.8 °F - 9.0 °F 15% 29.84 in 10.0 mi WNW 17.3 mph 25.3 mph N/A   Unknown
8:15 PM 55.4 °F - 8.6 °F 15% 29.85 in 10.0 mi WNW 16.1 mph 29.9 mph N/A   Clear
8:35 PM 54.3 °F - 8.6 °F 16% 29.86 in 10.0 mi West 16.1 mph 21.9 mph N/A   Clear
8:55 PM 53.6 °F - 8.4 °F 16% 29.87 in 10.0 mi WNW 13.8 mph 19.6 mph N/A   Clear
9:15 PM 53.4 °F - 7.9 °F 16% 29.88 in 10.0 mi West 17.3 mph 23.0 mph N/A   Clear
9:35 PM 52.9 °F - 6.8 °F 16% 29.89 in 10.0 mi West 19.6 mph 33.4 mph N/A   Clear
9:55 PM 51.8 °F - 7.2 °F 17% 29.91 in 10.0 mi West 11.5 mph 29.9 mph N/A   Clear
10:15 PM 50.2 °F - 7.5 °F 18% 29.92 in 10.0 mi West 11.5 mph - N/A   Clear
10:35 PM 50.2 °F - 6.4 °F 17% 29.93 in 10.0 mi West 13.8 mph 24.2 mph N/A   Clear
10:55 PM 50.0 °F - 4.8 °F 16% 29.94 in 10.0 mi West 15.0 mph 25.3 mph N/A   Clear
11:15 PM 49.3 °F - 4.8 °F 16% 29.94 in 10.0 mi WNW 18.4 mph 24.2 mph N/A   Clear
11:35 PM 49.5 °F - 3.2 °F 15% 29.95 in 10.0 mi West 24.2 mph 34.5 mph N/A   Clear
11:55 PM 48.4 °F - 3.4 °F 16% 29.95 in 10.0 mi WNW 12.7 mph 23.0 mph N/A   Clear